TimeAKDT,TemperatureF,Dew PointF,Humidity,Sea Level PressureIn,VisibilityMPH,Wind Direction,Wind SpeedMPH,Gust SpeedMPH,PrecipitationIn,Events,Conditions,WindDirDegrees,DateUTC
12:10 AM,48.2,44.6,87,30.19,3.0,Calm,Calm,-,N/A,,Overcast,0,2012-10-09 08:10:00
12:35 AM,48.2,44.6,87,30.19,2.0,Calm,Calm,-,N/A,,Overcast,0,2012-10-09 08:35:00
12:53 AM,48.0,45.0,89,30.19,2.0,Calm,Calm,-,N/A,,Overcast,0,2012-10-09 08:53:00
1:14 AM,48.2,44.6,87,30.18,2.5,Calm,Calm,-,N/A,,Overcast,0,2012-10-09 09:14:00
1:23 AM,48.2,44.6,87,30.18,4.0,Calm,Calm,-,N/A,,Overcast,0,2012-10-09 09:23:00
1:36 AM,48.2,44.6,87,30.18,7.0,Calm,Calm,-,N/A,,Overcast,0,2012-10-09 09:36:00
1:53 AM,48.0,45.0,89,30.19,9.0,Calm,Calm,-,N/A,,Overcast,0,2012-10-09 09:53:00
2:24 AM,48.2,44.6,87,30.18,10.0,Calm,Calm,-,N/A,,Overcast,0,2012-10-09 10:24:00
2:53 AM,48.0,45.0,89,30.18,10.0,Calm,Calm,-,N/A,,Overcast,0,2012-10-09 10:53:00
3:05 AM,48.2,44.6,87,30.18,10.0,Calm,Calm,-,N/A,,Overcast,0,2012-10-09 11:05:00
3:36 AM,48.2,44.6,87,30.17,2.5,WNW,3.5,-,N/A,,Overcast,300,2012-10-09 11:36:00
3:42 AM,48.2,44.6,87,30.17,1.0,WNW,3.5,-,N/A,,Overcast,300,2012-10-09 11:42:00
3:49 AM,48.2,44.6,87,30.17,0.8,WNW,3.5,-,N/A,,Overcast,300,2012-10-09 11:49:00
3:50 AM,48.0,45.0,89,30.17,0.8,WNW,3.5,-,N/A,,Overcast,300,2012-10-09 11:50:00
4:08 AM,48.2,44.6,87,30.17,1.0,WNW,3.5,-,N/A,,Overcast,300,2012-10-09 12:08:00
4:23 AM,48.2,44.6,87,30.17,3.0,WNW,3.5,-,N/A,,Overcast,300,2012-10-09 12:23:00
4:51 AM,48.2,44.6,87,30.17,2.5,NNW,3.5,-,N/A,,Overcast,330,2012-10-09 12:51:00
4:53 AM,48.0,45.0,89,30.17,2.5,NNW,3.5,-,N/A,,Overcast,330,2012-10-09 12:53:00
5:09 AM,48.2,44.6,87,30.16,1.8,NNW,3.5,-,N/A,,Overcast,340,2012-10-09 13:09:00
5:19 AM,48.2,44.6,87,30.16,2.0,NNW,3.5,-,N/A,,Overcast,330,2012-10-09 13:19:00
5:27 AM,48.2,44.6,87,30.16,1.8,NNW,3.5,-,N/A,,Overcast,330,2012-10-09 13:27:00
5:53 AM,46.9,45.0,93,30.16,1.8,NNW,3.5,-,0.00,Rain,Light Rain,340,2012-10-09 13:53:00
6:09 AM,46.4,44.6,93,30.16,2.0,NNW,3.5,-,0.00,,Overcast,340,2012-10-09 14:09:00
6:21 AM,46.4,44.6,93,30.16,1.8,North,3.5,-,0.00,Rain,Light Rain,350,2012-10-09 14:21:00
6:34 AM,46.4,44.6,93,30.16,2.5,North,3.5,-,0.00,,Overcast,350,2012-10-09 14:34:00
6:53 AM,46.9,45.0,93,30.16,0.8,North,3.5,-,0.00,,Overcast,360,2012-10-09 14:53:00
7:53 AM,46.9,44.1,90,30.16,0.8,NNW,4.6,-,0.00,Rain,Light Rain,340,2012-10-09 15:53:00
8:53 AM,46.9,44.1,90,30.16,0.8,NNW,4.6,-,0.00,,Overcast,340,2012-10-09 16:53:00
9:08 AM,46.4,44.6,93,30.16,0.8,North,5.8,-,0.00,,Overcast,350,2012-10-09 17:08:00
9:27 AM,46.4,44.6,93,30.15,0.8,NNW,5.8,-,0.00,,Overcast,330,2012-10-09 17:27:00
9:53 AM,46.9,44.1,90,30.16,0.8,North,4.6,-,0.00,,Overcast,350,2012-10-09 17:53:00
10:04 AM,46.4,44.6,93,30.16,3.0,North,4.6,-,N/A,,Overcast,350,2012-10-09 18:04:00
10:09 AM,46.4,44.6,93,30.16,1.8,North,3.5,-,N/A,,Overcast,350,2012-10-09 18:09:00
10:53 AM,46.9,44.1,90,30.17,1.2,North,4.6,-,N/A,,Overcast,360,2012-10-09 18:53:00
11:04 AM,46.4,44.6,93,30.16,3.0,North,4.6,-,N/A,,Overcast,360,2012-10-09 19:04:00
11:14 AM,48.2,44.6,87,30.16,1.8,North,4.6,-,N/A,,Overcast,360,2012-10-09 19:14:00
11:21 AM,48.2,44.6,87,30.17,3.0,North,3.5,-,N/A,,Overcast,360,2012-10-09 19:21:00
11:38 AM,48.2,44.6,87,30.17,2.0,North,4.6,-,N/A,,Overcast,350,2012-10-09 19:38:00
11:53 AM,48.0,45.0,89,30.17,1.8,North,3.5,-,N/A,,Overcast,10,2012-10-09 19:53:00
12:03 PM,48.2,44.6,87,30.17,3.0,North,4.6,-,N/A,,Overcast,10,2012-10-09 20:03:00
12:53 PM,48.9,45.0,86,30.16,10.0,North,4.6,-,N/A,,Overcast,360,2012-10-09 20:53:00
1:53 PM,50.0,45.0,83,30.15,10.0,North,4.6,-,N/A,,Overcast,360,2012-10-09 21:53:00
2:36 PM,50.0,46.4,87,30.15,4.0,North,3.5,-,0.00,Rain,Light Rain,360,2012-10-09 22:36:00
2:50 PM,50.0,46.4,87,30.15,10.0,North,3.5,-,0.00,,Overcast,350,2012-10-09 22:50:00
2:53 PM,50.0,46.0,86,30.15,10.0,North,3.5,-,0.00,,Overcast,350,2012-10-09 22:53:00
3:53 PM,51.1,44.1,77,30.14,10.0,North,3.5,-,N/A,,Overcast,360,2012-10-09 23:53:00
4:53 PM,51.1,44.1,77,30.13,10.0,NNE,5.8,-,N/A,,Overcast,20,2012-10-10 00:53:00
5:53 PM,51.1,44.1,77,30.12,10.0,NE,5.8,-,N/A,,Overcast,50,2012-10-10 01:53:00
6:53 PM,51.1,44.1,77,30.12,10.0,North,3.5,-,N/A,,Overcast,10,2012-10-10 02:53:00
7:53 PM,51.1,43.0,74,30.11,10.0,NE,3.5,-,N/A,,Overcast,50,2012-10-10 03:53:00
8:53 PM,48.9,44.1,83,30.11,10.0,NW,4.6,-,N/A,,Overcast,310,2012-10-10 04:53:00
9:53 PM,48.9,44.1,83,30.12,10.0,WNW,5.8,-,N/A,,Overcast,290,2012-10-10 05:53:00
10:53 PM,48.0,44.1,86,30.11,10.0,WNW,3.5,-,N/A,,Overcast,300,2012-10-10 06:53:00
11:53 PM,48.9,44.1,83,30.11,10.0,Calm,Calm,-,N/A,,Overcast,0,2012-10-10 07:53:00